Clarksville, TN

8:15 AM CDT on September 26, 2017 (GMT -0500)
Outlaw

Weather History for KCKV - October, 2013

Change the Weather History Date:

Wednesday, October 23, 2013

  Actual Average Record
Temperature  
Mean Temperature 46 °F 57 °F  
Max Temperature 52 °F 69 °F 90 °F (1963)
Min Temperature 39 °F 44 °F 24 °F (1982)
Degree Days  
Heating Degree Days 19 9  
Month to date heating degree days 122 137  
Since 1 July heating degree days 130 166  
Cooling Degree Days 0 1  
Month to date cooling degree days 60 29  
Year to date cooling degree days 1428  
Moisture  
Dew Point 36 °F    
Average Humidity 71    
Maximum Humidity 92    
Minimum Humidity 50    
Precipitation  
Precipitation 0.00 in 0.13 in 3.26 in (2007)
Month to date precipitation 2.02 3.00  
Year to date precipitation 39.66  
Sea Level Pressure  
Sea Level Pressure 30.04 in    
Wind  
Wind Speed 8 mph (NW)    
Max Wind Speed 23 mph    
Max Gust Speed 29 mph    
Visibility 10 miles    
Events      
T = Trace of Precipitation, MM = Missing Value Source: NWS Daily Summary

Daily Weather History Graph

Daily Weather History Graph

Search for Another Location

Airport or City:

Trip Planner

Search our weather history database for the weather conditions in past years. The results will help you decide how hot, cold, wet, or windy it might be!

Date:

Astronomy

Oct. 23, 2013 Rise Set
Actual Time 7:04 AM CDT 6:02 PM CDT
Civil Twilight 6:38 AM CDT 6:28 PM CDT
Nautical Twilight 6:08 AM CDT 6:59 PM CDT
Astronomical Twilight 5:38 AM CDT 7:29 PM CDT
Moon 9:37 PM CDT (10/23) 11:17 AM CDT (10/23)
Length of Visible Light 11h 50m
Length of Day
10h 58m
Waning Gibbous, 79% of the Moon is Illuminated
Oct 23
Waning Gibbous
Oct 26
Last Quarter
Nov 3
New
Nov 9
First Quarter
Nov 17
Full

Hourly Weather History & Observations

Time (CDT) Temp. Windchill Dew Point Humidity Pressure Visibility Wind Dir Wind Speed Gust Speed Precip Events Conditions
12:52 AM 48.9 °F - 45.0 °F 86% 29.88 in 10.0 mi WNW 8.1 mph - N/A   Scattered Clouds
1:52 AM 48.0 °F - 43.0 °F 83% 29.89 in 10.0 mi NW 11.5 mph - N/A   Clear
2:47 AM 46.4 °F 40.4 °F 41.0 °F 81% 29.90 in 10.0 mi NW 13.8 mph - N/A   Mostly Cloudy
2:52 AM 46.9 °F - 41.0 °F 80% 29.90 in 10.0 mi NW 12.7 mph - N/A   Mostly Cloudy
3:52 AM 46.9 °F - 39.9 °F 77% 29.91 in 10.0 mi NW 11.5 mph - N/A   Overcast
4:04 AM 46.4 °F 40.7 °F 39.2 °F 76% 29.91 in 10.0 mi NW 12.7 mph - N/A   Overcast
4:52 AM 44.1 °F 36.2 °F 37.0 °F 76% 29.94 in 10.0 mi NNW 18.4 mph 25.3 mph 0.01 in   Overcast
5:32 AM 42.8 °F 36.2 °F 35.6 °F 76% 29.97 in 10.0 mi NW 12.7 mph 26.5 mph N/A   Overcast
5:52 AM 43.0 °F 35.4 °F 35.1 °F 74% 29.99 in 10.0 mi NNW 16.1 mph - N/A   Overcast
6:52 AM 42.1 °F 36.1 °F 35.1 °F 76% 30.01 in 10.0 mi NW 10.4 mph 20.7 mph N/A   Overcast
7:28 AM 42.8 °F 37.5 °F 35.6 °F 76% 30.02 in 10.0 mi NW 9.2 mph - N/A   Overcast
7:52 AM 43.0 °F 36.8 °F 34.0 °F 71% 30.04 in 10.0 mi NW 11.5 mph - N/A   Overcast
8:09 AM 42.8 °F 38.6 °F 33.8 °F 70% 30.05 in 10.0 mi NW 6.9 mph - N/A   Overcast
8:34 AM 42.8 °F 35.4 °F 33.8 °F 70% 30.06 in 10.0 mi NNW 15.0 mph 20.7 mph N/A   Overcast
8:52 AM 43.0 °F 36.0 °F 33.1 °F 68% 30.07 in 10.0 mi NNW 13.8 mph - N/A   Overcast
9:38 AM 44.6 °F 38.4 °F 33.8 °F 66% 30.09 in 10.0 mi NW 12.7 mph 23.0 mph N/A   Overcast
9:52 AM 44.1 °F 36.8 °F 33.1 °F 65% 30.09 in 10.0 mi WNW 16.1 mph 21.9 mph N/A   Overcast
10:17 AM 46.4 °F 41.5 °F 33.8 °F 62% 30.10 in 10.0 mi NW 10.4 mph - N/A   Mostly Cloudy
10:52 AM 46.9 °F - 33.1 °F 59% 30.11 in 10.0 mi NW 13.8 mph 20.7 mph N/A   Mostly Cloudy
11:52 AM 50.0 °F - 35.1 °F 57% 30.12 in 10.0 mi NW 10.4 mph - N/A   Mostly Cloudy
12:52 PM 48.9 °F - 34.0 °F 56% 30.10 in 10.0 mi West 10.4 mph - N/A   Mostly Cloudy
1:52 PM 51.1 °F - 33.1 °F 50% 30.09 in 10.0 mi NW 10.4 mph - N/A   Mostly Cloudy
2:52 PM 51.1 °F - 33.1 °F 50% 30.09 in 10.0 mi WNW 8.1 mph - N/A   Scattered Clouds
3:52 PM 50.0 °F - 32.0 °F 50% 30.09 in 8.0 mi WNW 8.1 mph - N/A   Clear
4:52 PM 50.0 °F - 33.1 °F 52% 30.09 in 10.0 mi WNW 9.2 mph - N/A   Partly Cloudy
5:52 PM 48.0 °F - 33.1 °F 56% 30.09 in 10.0 mi WNW 4.6 mph - N/A   Clear
6:52 PM 46.9 °F - 33.1 °F 59% 30.10 in 10.0 mi West 3.5 mph - N/A   Clear
7:52 PM 43.0 °F - 35.1 °F 74% 30.10 in 10.0 mi Calm Calm - N/A   Clear
8:52 PM 39.9 °F - 37.0 °F 89% 30.10 in 10.0 mi Calm Calm - N/A   Mostly Cloudy
9:52 PM 42.1 °F - 37.9 °F 85% 30.12 in 10.0 mi Calm Calm - N/A   Overcast
10:52 PM 44.1 °F - 39.9 °F 85% 30.13 in 10.0 mi Calm Calm - N/A   Overcast
11:52 PM 44.1 °F - 39.9 °F 85% 30.12 in 10.0 mi Calm Calm - N/A   Overcast